Location: Brusselsch Zeekanaal
(50.8667°N, 4.3667°E)
Time: 02:46:38
(UTC+00:00)

H-2A R/B - Pass Details

Date: 08 November 2025
Orbit: 522 x 537 km, 98.2° (Epoch: 14 December)

Event Time Altitude Azimuth Distance (km) Brightness Sun altitude
Rises 04:10:48 0° 15° (NNE) 2,684 7.1 -24.7°
Reaches altitude 10° 04:12:55 10° 16° (NNE) 1,786 6.1 -24.3°
Enters shadow 04:16:01 56° 26° (NNE) 637 3.7 -23.9°
